Timeline UpdatesTrip UpdatesNews PostsPvt PostsTravel TipsAdmin PostsConv PostsFollowed PostsChat RequestsBlog PostsPNR Posts

Disclaimer
Search
 
 
Fri Apr 18, 2014 08:38:55 ISTHomeTrainsΣChainsAtlasPNRForumGalleryNewsFAQTripsMembersLoginFeedback
No Recent News for this Train
Other Trains in the News **new
Latest...
.
Sat Oct 19, 2013 (10:33AM)
⇐ Return Journey: Train# 12511

12512/Raptisagar SF Express

Nov 01 2013 (7:36AM)
Change Departure Station:
Change Arrival Station:
Post a Train Travel TipPost a Train Travel Tip **new
Post a Comment/Question/Picture/VideoPost a Comment/Question/Picture/Video
Pantry/Catering
✓ Pantry Car Avbl
✓ Catering Avbl
Loco/Rake Reversals
MAS/Chennai Central (12); LJN/Lucknow Junction (6); SRR/Shoranur Junction (7);
RSA - Rake Sharing
12511/12512/12589/12590/12591/12592
Rake/Coach Composition
Loco- SLR-UR-UR-A1-B4-B3-B2-B1-PC-S12-S11-S10-S9-S8-S7-S6-S5-S4-S3-S2-S1-UR-UR-SLR.; 2AC-1, 3AC-4, PC-1, SL-12, UR-4, SLR-2= 24 COACHES.; B4 added as per http://indiarailinfo.com/pnr/post/635962
Loco
#WAP 4 ED/AJJ/RPM Shed Till JHS & From JHS #WDM...
Read more...
3 A/G GD/JHS Shed.
News    PNR    Forum    Time-Table    Availability    Fare Chart    Map    Arr/Dep History    Trips    Gallery    ΣChains    X/O    Timeline    
Travel Time: 57h 5m    58 halts    Distance: 3248 km    Avg Speed: 56 km/hr
Type: SuperFast
Zone: NER/North Eastern
Departs @ 06:15 (Avg 1m late)
Platform# 3
S TW   
Trivandrum Central/TVC 
Arrives @ 15:20 +2 nights (Avg 1h 23m late)
Platform# 7
  T TF 
Gorakhpur Junction/GKP 

58 halts. 521 intermediate Stations between Trivandrum Central and Gorakhpur Junction

Show ALL intermediate Stations  Show Old Time-Table

#CodeStation NameX/OArrivesAvgDepartsAvgHaltPFDay#KmSpeedElevZoneAddress
1TVC»Trivandrum Central (5)»  -06:15+1310.07012mSRPh: 0471-2321622, Kerala
2QLNKollam Junction (6)X  07:10+407:15+35m2164.66416mSRKollam 0474-2746194, Kerala
3KYJKayamkulam Junction (5)X  07:53+207:55+32m11105.44211mSRAlappuzha Ph;0479-2442042, Kerala
4HADHarippad (2)  08:14+108:15+61m11118.7777mSRHaripad 0479-2412714, Kerala
5AMPAAmbalappuzha (1)  08:29+1308:30+141m11136.6736mSRph 0477-2272620, Kerala
6ALLPAlappuzha (3)  08:40+1808:43+173m11148.8478mSRPh:0477-2253965, Kerala
7SRTLCherthala (3)  09:14+809:15+91m21172.9387mSRPh: 0478- 2812500, Kerala
8ERSErnakulam Junction (South) (6)  10:08+310:10+102m31206.3423mSRErnakulam 682016, Kerala
9AWYAluva (3)X  10:38+910:40+112m31225.76912mSRPh: 0484-2624141, Kerala
10AFKAngamaly for Kalady (3)  10:48+1410:50+142m--1234.95716mSRPhone: 0484-2452340, Kerala
11CKIChalakkudy (3)  11:06+1711:08+172m21250.1649mSRPh: 0480- 2701368, Kerala
12IJKIrinjalakkuda (2)X  11:14+2011:16+192m--1256.64618mSRKalletumkara, Kerala
13TCRThrissur (4)X  11:47+1111:50+123m21280.3556mSRThrissur Tel: 0487 2423150, Kerala
14WKIWadakkanchery (2)X  12:08+1312:10+122m21296.72240mSRWadackanchery, Kerala
15SRRShoranur Junction (7)↵¶12:55-113:05+1210m61313.35926mSRShoranur ph.no 0466-2222913, Kerala
16OTPOttappalam (2)X  13:18+1713:20+172m--1326.14730mSROttapalam, Kerala
17PGTPalakkad Junction (4)X  14:00+214:05+55m--1357.64584mSRPalghat Tel: 0491 2555231, Kerala
18CBECoimbatore Main Junction (6)  15:20+215:25+85m--1413.371411mSRCoimbatore 641001, Tamil Nadu
19TUPTiruppur (2)X  16:08+1316:10+132m21463.954305mSRTiruppur. Ph:0421-2200450, Tamil Nadu
20EDErode Junction (4)X  17:05+517:15+1510m11513.874175mSRErode ph.no: 0424-2256111, Tamil Nadu
21SASalem Junction (6)  18:05+1718:10+185m--1575.674283mSRSalem, Tamil Nadu
22JTJJolarpettai Junction (5)X  19:48+1619:50+162m--1695.780405mSRJolarpettai jtn. Ph No.04179-241221, Tamil Nadu
23KPDKatpadi Junction (5)X  20:53+1920:55+202m21779.660213mSRVellore 632007. Phone No: 0416-2642628, Tamil Nadu
24MASChennai Central (12)X↵¶23:05+923:25+1420m31909.0639mSRChennai 600003, Tamil Nadu
25GDRGudur Junction (3)X  01:35+901:37+102m221046.49219mSCRGudur, Andhra Pradesh
26NLRNellore (4)  02:02+2002:03+211m221084.98121mSCRNellore, Andhra Pradesh
27OGLOngole (3)X  03:29+2003:30+211m121201.78512mSCROngole ph.no . 08592-280202, Andhra Pradesh
28CLXChirala (4)X  04:05+2204:06+231m321251.0458mSCRChirala, Andhra Pradesh
29BZAVijayawada Junction (10)X  06:05+106:20+315m1021339.98624mSCRVijayawada 520001, Andhra Pradesh
30KMTKhammam (2)X  07:30+3107:32+302m221440.360118mSCRKhammam 507001, Andhra Pradesh
31WLWarangal (3)O  09:20+1609:22+192m221547.983271mSCRWarangal., Andhra Pradesh
32RDMRamagundam (3)  10:35+3310:36+341m121649.075170mSCRKarimnagar Dist. Ph : 08728 - 255237, Andhra Pradesh
33MCIManchiryal (3)X  10:47+3810:48+381m121662.857159mSCRMancherial. Ph : 08736 - 254445, Andhra Pradesh
34BPABellampalli (3)  11:09+3511:10+361m121682.689205mSCRBelampalli Tel:.08735 223298, Andhra Pradesh
35SKZRSirpur Kaghaznagar (3)X  11:36+2611:37+271m121721.148181mSCRKaghaznagar, Andhra Pradesh
36BPQBalharshah Junction (5)X  13:05+2213:15+2310m421790.843188mCRBallarpur. Ph : 07172 - 240341, Maharashtra
37CDChandrapur MaharashtraX  13:34+2513:35+261m--21804.687194mCRChandrapur 442401, Maharashtra
38HGTHinganghat  14:34+4114:35+421m--21890.145228mCRHinganghat, Maharashtra
39SEGMSewagram Junction (5)X  15:19+3015:20+321m221923.254264mCRWardha, Maharashtra
40NGPNagpur Junction (9)X  16:45+2417:00+2015m121999.485314mCRNagpur 440001, Maharashtra
41PARPandhurna (2)  18:14+3118:15+331m--22103.762481mCRDistt: Chhindwara, Madhya Pradesh
42AMLAAmla Junction (5)  19:17+4119:19+422m322167.492733mCRAmla Distt. Betul, Madhya Pradesh
43BZUBetul (3)  19:34+4719:35+501m--22190.357644mCRBetul, Madhya Pradesh
44GDYAGhoradongri (3)X  20:13+4820:15+482m--22226.235410mCRBetul, Madhya Pradesh
45ETItarsi Junction (7)  22:15+1922:20+275m322296.552329mWCRItarsi 461111, Madhya Pradesh
46BPLBhopal Junction (6)X  00:05+3400:10+355m432388.370497mWCRBhopal, Madhya Pradesh
47LARLalitpur (3)X  03:02+3103:04+312m332589.774373mNCRLalitpur, Uttar Pradesh
48JHSJhansi Junction (7)X04:17+4204:32+5715m132680.180259mNCRJhansi, Uttar Pradesh
49ORAIOrai (3)  05:58+1:1406:00+1:202m--32794.090139mNCROrai(05162-252206), Uttar Pradesh
50PHNPokhrayan (2)XO  06:32+1:3706:34+1:392m132841.935133mNCRPukhrayan, Uttar Pradesh
51CNBKanpur Central (10)X  08:15+1:2208:20+1:235m432900.347128mNCRKanpur, Uttar Pradesh
52ONUnnao Junction (5)X  08:42+1:3908:43+1:401m332917.752129mNRUnnao, Uttar Pradesh
53LJNLucknow Junction (6)X09:45+1:4510:05+1:5020m132971.626126mNERLucknow, Uttar Pradesh
54BNZBadshahnagar (2)  10:30+1:5510:31+1:561m132982.646116mNERLucknow, Uttar Pradesh
55BBKBarabanki Junction (4)  11:03+1:5811:05+1:582m333007.267122mNRPin-225001, Uttar Pradesh
56GDGonda Junction (3)  12:25+2:0312:30+2:035m233096.576110mNERGonda 271001, Uttar Pradesh
57MURMankapur Junction (5)  12:52+2:0012:54+2:002m--33124.471104mNERDistrict Gonda, Uttar Pradesh
58BSTBasti (4)X  13:45+1:4813:50+1:465m--33185.08190mNERBasti 272001, Uttar Pradesh
59KLDKhalilabad (3)  14:12+1:4514:14+1:442m--33214.53186mNERKhalilabad- 272175, Uttar Pradesh
60GKP•Gorakhpur Junction (10)•  15:20+1:23-733248.4-84mNERGorakhpur 273001, Uttar Pradesh
Scroll to Top
Scroll to Bottom